Regional Weather Roundup
Issued by NWS Sioux Falls, SD

Home | Current Version | Previous Version | Text Only | Print | Product List | Glossary On
Versions: 1 2 3 4 5 6 7 8 9 10 11 12 13 14 15 16 17 18 19 20 21 22 23 24 25 26 27 28 29 30 31 32 33 34 35 36 37 38 39 40 41 42 43 44 45 46 47 48 49 50
000
ASUS43 KFSD 260302
RWRFSD

WEATHER ROUNDUP FOR SE SOUTH DAKOTA/SW MINNESOTA/NW IOWA
NATIONAL WEATHER SERVICE SIOUX FALLS SD
1000 PM CDT MON MAY 25 2015

NOTE: "FAIR" INDICATES FEW OR NO CLOUDS BELOW 12,000 FEET WITH NO
SIGNIFICANT WEATHER AND OR OBSTRUCTIONS TO VISIBILITY.


SDZ038>040-050-052>070-260400-
SOUTHEAST SOUTH DAKOTA

CITY           SKY/WX    TMP DP  RH WIND       PRES   REMARKS
BROOKINGS      PTCLDY    57  54  88 N13       29.82R
CHAMBERLAIN    MOCLDY    59  49  70 N5        29.84R
HURON          CLEAR     55  50  83 E6        29.82R
MADISON        FAIR      55  55 100 NE12      29.82R
MITCHELL       MOCLDY    58  54  86 N9        29.80R
SIOUX FALLS    PTCLDY    59  57  93 NE3       29.77R
WINNER         CLOUDY    60  55  83 N5        29.84R
YANKTON        PTCLDY    63  57  82 N6        29.76R
$$

MNZ071-072-080-081-089-090-097-098-260400-
SOUTHWEST MINNESOTA

CITY           SKY/WX    TMP DP  RH WIND       PRES   REMARKS
FAIRMONT       MOCLDY    64  55  72 NW3       29.79R
JACKSON        MOCLDY    64  59  82 N6        29.80R
LUVERNE        CLEAR     63  57  82 N3        29.78R
MARSHALL       CLOUDY    59  52  77 NW9       29.80R
MONTEVIDEO     MOCLDY    59  55  88 N3        29.80R
REDWOOD FALLS  CLEAR     60  56  86 W8        29.77R
TRACY          PTCLDY    60  56  87 NW8       29.80R
WINDOM         MOCLDY    63  57  82 CALM      29.79R
WORTHINGTON    PTCLDY    61  55  82 CALM      29.79R
$$

IAZ001>003-012>014-020>022-031-032-NEZ013-014-SDZ071-260400-
NORTHWEST IOWA

CITY           SKY/WX    TMP DP  RH WIND       PRES   REMARKS
DENISON        LGT RAIN  64  64 100 SW9       29.79R
ESTHERVILLE    MOCLDY    64  59  83 N5        29.78R
SIOUX CITY     MOCLDY    68  58  70 N9        29.74R
SPENCER        MOCLDY    64  60  87 N8        29.78R
$$

ABBREVIATIONS USED IN REMARKS
   TC - TEMPERATURE IN CELSIUS
  WCI - WIND CHILL INDEX
   HX - HEAT INDEX
  VSB - VISIBILITY



USA.gov is the U.S. government's official web portal to all federal, state and local government web resources and services.